Location: Fladderlohausen
(52.5740°N, 8.0970°E)
Time: 05:44:28
(UTC+00:00)

Daily predictions for brighter satellites

Satellite Brightness Start Highest point End
(mag) Time Altitude Azimuth Time Altitude Azimuth Time Altitude Azimuth
STARLINK-1365 3.5 00:03:52 10° W 00:07:56 89° NNW 00:12:00 10° E
Cosmos 1898 Rocket 3.9 00:03:18 10° NW 00:08:27 49° WSW 00:11:42 21° S
ERBS 3.1 00:05:31 10° WNW 00:08:28 30° SW 00:08:52 29° SSW
USA 229 DEB 4.3 00:01:59 10° NW 00:09:06 67° NE 00:16:37 10° ESE
USA 229 4.3 00:02:06 10° NW 00:09:13 67° NE 00:16:43 10° ESE
NOSS 3-1 (C) 4.3 00:03:25 10° NW 00:10:33 73° NE 00:18:56 10° SE
Cosmos 1400 Rocket 3.9 00:07:37 10° N 00:11:35 42° ENE 00:15:19 11° SE
ATLAS CENTAUR R/B 2.7 00:10:58 10° W 00:12:31 21° SW 00:12:31 21° SW
Cosmos 2278 4.3 00:09:40 19° S 00:13:20 45° ESE 00:18:43 10° NE
Cosmos 1697 Rocket 2.8 00:10:39 21° SSW 00:14:30 66° ESE 00:20:09 10° NE
Cosmos 372 Rocket 4.1 00:11:58 10° NNW 00:17:08 78° ENE 00:22:10 11° SSE
GP-B 4.3 00:13:29 10° NNE 00:17:36 35° E 00:21:22 12° SSE
Cosmos-2242 3.0 00:14:42 10° N 00:19:00 81° E 00:21:58 19° SSE
Cosmos 1626 Rocket 4.1 00:18:07 20° SW 00:20:54 49° WNW 00:25:11 10° N
STARLINK 1040 2.7 00:20:41 39° S 00:20:55 41° SSE 00:23:21 10° E
Cosmos 2150 Rocket 4.3 00:16:29 10° NNW 00:21:39 66° ENE 00:26:46 10° SE
STARLINK-1444 1.7 00:19:41 10° W 00:21:48 72° SSW 00:24:01 10° ESE
Cosmos 2227 Rocket 3.2 00:17:11 10° NW 00:22:03 30° WSW 00:25:05 19° SSW
STARLINK-1452 1.7 00:20:18 10° W 00:22:25 72° SSW 00:24:37 10° ESE
STARLINK-55 4.0 00:22:38 26° SSE 00:23:08 27° SSE 00:25:55 10° E
STARLINK-1450 1.6 00:21:35 10° W 00:23:39 70° SSW 00:25:49 10° ESE
STARLINK-1436 (VISORSAT) 1.7 00:21:35 10° W 00:23:41 70° SSW 00:25:52 10° ESE
STARLINK-1398 1.7 00:21:40 10° W 00:23:45 70° SSW 00:25:58 10° ESE
STARLINK-1392 1.7 00:21:42 10° W 00:23:46 70° SSW 00:25:56 10° ESE
STARLINK-1399 1.7 00:21:42 10° W 00:23:46 70° SSW 00:25:56 10° ESE
STARLINK-1415 1.7 00:21:43 10° W 00:23:47 70° SSW 00:25:57 10° ESE
STARLINK-1394 1.7 00:21:43 10° W 00:23:47 70° SSW 00:25:57 10° ESE
STARLINK-1414 1.7 00:21:41 10° W 00:23:47 70° SSW 00:25:58 10° ESE
STARLINK-1395 1.7 00:21:44 10° W 00:23:47 70° SSW 00:25:57 10° ESE
STARLINK-1393 1.7 00:21:44 10° W 00:23:48 70° SSW 00:25:57 10° ESE
STARLINK-1416 1.7 00:21:42 10° W 00:23:48 70° SSW 00:25:59 10° ESE
STARLINK-1396 1.7 00:21:44 10° W 00:23:48 70° SSW 00:25:57 10° ESE
STARLINK-1397 1.7 00:21:44 10° W 00:23:48 70° SSW 00:25:57 10° ESE
STARLINK-1401 1.7 00:21:45 10° W 00:23:49 70° SSW 00:25:57 10° ESE
STARLINK-1408 1.7 00:21:43 10° W 00:23:49 70° SSW 00:26:00 10° ESE
STARLINK-1404 1.7 00:21:45 10° W 00:23:49 70° SSW 00:25:58 10° ESE
STARLINK-1453 1.7 00:21:46 10° W 00:23:50 70° SSW 00:25:59 10° ESE
STARLINK-1419 1.7 00:21:44 10° W 00:23:50 70° SSW 00:26:01 10° ESE
STARLINK-1417 1.7 00:21:47 10° W 00:23:50 70° SSW 00:26:00 10° ESE
STARLINK-1402 1.7 00:21:47 10° W 00:23:50 70° SSW 00:26:00 10° ESE
STARLINK-1420 1.7 00:21:46 10° W 00:23:52 70° SSW 00:26:03 10° ESE
STARLINK-1413 1.7 00:21:48 10° W 00:23:52 70° SSW 00:26:01 10° ESE
STARLINK-1406 1.7 00:21:48 10° W 00:23:52 70° SSW 00:26:01 10° ESE
STARLINK-1422 1.7 00:21:47 10° W 00:23:53 70° SSW 00:26:04 10° ESE
STARLINK-1460 1.7 00:21:47 10° W 00:23:53 70° SSW 00:26:05 10° ESE
STARLINK-1458 1.7 00:21:47 10° W 00:23:53 70° SSW 00:26:05 10° ESE
STARLINK-1440 1.7 00:21:50 10° W 00:23:54 70° SSW 00:26:03 10° ESE
STARLINK-1445 1.7 00:21:50 10° W 00:23:54 70° SSW 00:26:04 10° ESE
STARLINK-1443 1.7 00:21:51 10° W 00:23:55 70° SSW 00:26:05 10° ESE
STARLINK-1454 1.7 00:21:51 10° W 00:23:55 70° SSW 00:26:05 10° ESE
STARLINK-1437 1.7 00:21:50 10° W 00:23:56 70° SSW 00:26:07 10° ESE
STARLINK-1457 1.7 00:21:52 10° W 00:23:56 70° SSW 00:26:05 10° ESE
STARLINK-1456 1.7 00:21:53 10° W 00:23:57 70° SSW 00:26:06 10° ESE
STARLINK-1451 1.7 00:21:53 10° W 00:23:57 70° SSW 00:26:06 10° ESE
STARLINK-1446 1.7 00:21:51 10° W 00:23:57 70° SSW 00:26:09 10° ESE
STARLINK-1442 1.7 00:21:54 10° W 00:23:58 70° SSW 00:26:07 10° ESE
STARLINK-1447 1.7 00:21:54 10° W 00:24:00 70° SSW 00:26:12 10° ESE
STARLINK-1455 1.7 00:21:54 10° W 00:24:00 70° SSW 00:26:12 10° ESE
STARLINK-1405 1.7 00:21:57 10° W 00:24:00 70° SSW 00:26:10 10° ESE
STARLINK-1421 1.7 00:21:57 10° W 00:24:00 70° SSW 00:26:10 10° ESE
STARLINK-1423 1.7 00:21:55 10° W 00:24:00 70° SSW 00:26:12 10° ESE
STARLINK-1441 1.7 00:21:55 10° W 00:24:00 70° SSW 00:26:13 10° ESE
STARLINK-1400 1.7 00:21:57 10° W 00:24:00 70° SSW 00:26:10 10° ESE
STARLINK-1410 1.7 00:21:57 10° W 00:24:00 70° SSW 00:26:10 10° ESE
STARLINK-1407 1.7 00:21:58 10° W 00:24:01 70° SSW 00:26:11 10° ESE
STARLINK-1449 1.7 00:21:56 10° W 00:24:01 70° SSW 00:26:14 10° ESE
STARLINK-1439 1.7 00:21:58 10° W 00:24:02 70° SSW 00:26:11 10° ESE
STARLINK-1448 1.7 00:21:56 10° W 00:24:03 70° SSW 00:26:14 10° ESE
STARLINK-1338 3.5 00:20:05 10° W 00:24:03 85° N 00:28:01 10° E
STARLINK-1409 1.7 00:21:59 10° W 00:24:03 70° SSW 00:26:12 10° ESE
STARLINK-1351 1.7 00:22:00 10° W 00:24:04 70° SSW 00:26:13 10° ESE
STARLINK-1370 1.7 00:22:00 10° W 00:24:04 70° SSW 00:26:13 10° ESE
STARLINK-1418 1.7 00:22:00 10° W 00:24:04 70° SSW 00:26:13 10° ESE
STARLINK-1434 1.7 00:22:00 10° W 00:24:04 70° SSW 00:26:13 10° ESE
STARLINK-1403 1.7 00:22:01 10° W 00:24:05 70° SSW 00:26:14 10° ESE
STARLINK-1433 1.7 00:22:02 10° W 00:24:06 70° SSW 00:26:15 10° ESE
STARLINK-1411 1.7 00:22:03 10° W 00:24:07 70° SSW 00:26:16 10° ESE
STARLINK-1438 1.7 00:22:03 10° W 00:24:07 70° SSW 00:26:17 10° ESE
STARLINK-1412 1.7 00:22:03 10° W 00:24:09 70° SSW 00:26:22 10° ESE
Resurs 1-4 Rocket 3.5 00:19:32 10° NNE 00:24:11 30° E 00:28:42 10° SSE
Uosat 12 SS-18 rocket 4.4 00:21:56 10° NW 00:26:02 43° SW 00:28:52 19° S
Cosmos 1814 Rocket 4.4 00:26:04 19° S 00:29:44 54° ESE 00:34:55 10° NNE
IRAS Rocket 4.2 00:26:35 16° SSE 00:31:10 78° WSW 00:36:44 10° NNW
STARLINK-29 2.8 00:28:51 10° W 00:32:04 85° SSW 00:35:16 10° ESE
STARLINK-1371 3.5 00:28:13 10° W 00:32:11 84° N 00:36:09 10° E
STARLINK-28 3.8 00:33:31 27° S 00:34:28 33° SSE 00:37:24 10° E
STARLINK-26 3.9 00:33:53 25° S 00:35:05 33° SSE 00:38:14 10° E
STARLINK-1341 3.5 00:32:19 10° W 00:36:17 83° N 00:40:16 10° E
Cosmos 1125 Rocket 4.0 00:33:12 10° NNW 00:38:22 59° ENE 00:43:31 10° SE
STARLINK-1374 3.5 00:36:25 10° W 00:40:23 83° N 00:44:21 10° E
UNK 4.2 00:36:46 10° SSE 00:41:18 61° ENE 00:45:50 10° N
SL-16 R/B 4.0 00:37:11 10° SSE 00:41:23 22° ESE 00:45:37 10° NE
Cosmos 841 Rocket 3.5 00:37:44 19° SSW 00:41:29 76° ESE 00:46:42 10° NNE
Helios 1B rocket 3.1 00:38:44 10° N 00:42:44 48° WNW 00:45:37 17° SW
Cosmos 1570 Rocket 4.0 00:39:09 19° SSW 00:43:03 86° ESE 00:48:21 10° NNE
ATLAS 2AS CENTAUR R/B 4.4 00:36:05 10° W 00:43:29 39° NNW 00:50:37 10° NE
GEOS 3 Rocket 3.8 00:38:22 10° SE 00:43:35 78° NE 00:48:56 10° NW
STARLINK-1339 3.5 00:40:34 10° W 00:44:32 83° N 00:48:30 10° E
Meteor 1-21 Rocket 4.5 00:40:34 18° SSW 00:44:52 66° WNW 00:50:40 10° N
Cosmos 1315 Rocket 4.2 00:42:10 10° N 00:45:51 36° ENE 00:49:31 10° SE
CZ-4C R/B 3.7 00:42:55 12° SSE 00:46:58 77° ENE 00:51:26 10° NNW
STARLINK-80 4.4 00:45:26 21° S 00:47:06 31° SSE 00:50:29 10° E
Cosmos 2298 Rocket 4.0 00:42:46 10° NNW 00:48:06 76° WSW 00:53:21 10° SSE
STARLINK-1377 3.5 00:44:42 10° W 00:48:41 82° N 00:52:40 10° E
STARLINK-33 3.6 00:47:57 25° SSW 00:49:10 36° SSE 00:52:05 10° E
CZ-4C R/B 2.3 00:44:45 13° SW 00:49:29 79° NW 00:55:53 10° NE
Cosmos 1763 Rocket 3.8 00:45:56 16° SW 00:49:59 58° WNW 00:55:01 10° NNE
STARLINK-1320 2.9 00:48:27 10° W 00:51:35 81° N 00:54:44 10° E
PSLV R/B 4.4 00:47:26 10° N 00:51:39 42° WNW 00:54:54 15° SW
STARLINK-1322 2.9 00:48:48 10° W 00:51:56 81° N 00:55:04 10° E
CZ-2D R/B 2.8 00:46:55 10° NNE 00:51:58 46° E 00:56:32 12° S
STARLINK-1324 2.9 00:49:08 10° W 00:52:16 81° N 00:55:24 10° E
STARLINK-1294 2.9 00:49:25 10° W 00:52:34 82° N 00:55:43 10° E
STARLINK-1353 3.6 00:48:52 10° W 00:52:51 82° N 00:56:49 10° E
STARLINK-1261 2.9 00:49:48 10° W 00:52:56 82° N 00:56:04 10° E
STARLINK-1325 2.9 00:50:09 10° W 00:53:17 82° N 00:56:25 10° E
STARLINK-1333 2.9 00:50:30 10° W 00:53:38 82° N 00:56:46 10° E
STARLINK-1334 2.9 00:50:49 10° W 00:53:57 82° N 00:57:05 10° E
STARLINK-1326 2.9 00:51:10 10° W 00:54:18 82° N 00:57:26 10° E
STARLINK-1323 2.9 00:51:30 10° W 00:54:38 82° N 00:57:46 10° E
STARLINK-1349 2.9 00:51:49 10° W 00:54:57 82° N 00:58:05 10° E
Cosmos 1825 Rocket 3.6 00:51:55 19° SSW 00:54:57 68° WNW 00:59:20 10° N
Cosmos 2184 Rocket 4.4 00:49:34 12° S 00:55:11 58° E 01:01:14 10° NNE
STARLINK-1336 2.9 00:52:09 10° W 00:55:18 82° N 00:58:26 10° E
STARLINK-1331 2.9 00:52:31 10° W 00:55:39 82° N 00:58:47 10° E
STARLINK-1344 2.9 00:52:50 10° W 00:55:58 82° N 00:59:06 10° E
Meteor 2-10 Rocket 4.4 00:51:38 10° NNW 00:56:15 33° W 00:59:33 16° SW
STARLINK-1343 2.9 00:53:12 10° W 00:56:19 82° N 00:59:28 10° E
STARLINK-1346 2.9 00:53:29 10° W 00:56:39 82° N 00:59:49 10° E
STARLINK-1328 2.9 00:53:53 10° W 00:57:01 82° N 01:00:09 10° E
STARLINK-1375 3.6 00:53:02 10° W 00:57:02 83° N 01:01:00 10° E
STARLINK-1354 2.9 00:54:13 10° W 00:57:21 82° N 01:00:29 10° E
STARLINK-1347 2.9 00:54:31 10° W 00:57:39 82° N 01:00:48 10° E
STARLINK-1357 2.9 00:54:54 10° W 00:58:02 83° N 01:01:10 10° E
STARLINK-1335 2.9 00:55:13 10° W 00:58:21 83° N 01:01:28 10° E
STARLINK-1327 2.9 00:55:34 10° W 00:58:42 83° N 01:01:50 10° E
STARLINK-1340 2.9 00:55:54 10° W 00:59:03 83° N 01:02:11 10° E
STARLINK-1356 2.9 00:56:14 10° W 00:59:23 83° N 01:02:31 10° E
STARLINK-1345 2.9 00:56:34 10° W 00:59:42 83° N 01:02:51 10° E
STARLINK-1355 2.9 00:56:54 10° W 01:00:03 83° N 01:03:11 10° E
STARLINK-1321 2.9 00:57:14 10° W 01:00:22 83° N 01:03:30 10° E
Cosmos 2208 Rocket 4.1 00:56:35 17° SSW 01:00:44 84° WNW 01:06:10 10° NNE
STARLINK-1358 2.9 00:57:36 10° W 01:00:44 83° N 01:03:53 10° E
STARLINK-1332 2.9 00:57:55 10° W 01:01:03 83° N 01:04:10 10° E
STARLINK-1350 3.6 00:57:12 10° W 01:01:11 83° N 01:05:09 10° E
STARLINK-1348 2.9 00:58:15 10° W 01:01:23 83° N 01:04:31 10° E
STARLINK-1330 2.9 00:58:36 10° W 01:01:44 83° N 01:04:52 10° E
Lacrosse 4 Rocket 3.2 00:59:20 10° WNW 01:01:57 16° WSW 01:03:15 14° SW
STARLINK-1363 2.9 00:58:55 10° W 01:02:02 84° N 01:05:10 10° E
STARLINK-1337 2.9 00:59:16 10° W 01:02:24 84° N 01:05:32 10° E
STARLINK-1297 4.1 01:00:39 20° SSW 01:02:28 33° SSE 01:05:43 10° E
STARLINK-1342 2.9 00:59:38 10° W 01:02:45 84° N 01:05:53 10° E
STARLINK-66 3.3 01:01:11 20° SW 01:03:02 44° SSE 01:06:07 10° E
STARLINK-1364 2.9 00:59:58 10° W 01:03:06 84° N 01:06:13 10° E
STARLINK-1376 2.9 01:00:18 10° W 01:03:26 84° N 01:06:34 10° E
STARLINK-1360 2.9 01:00:38 10° W 01:03:46 84° N 01:06:54 10° E
STARLINK-1361 2.9 01:00:59 10° W 01:04:07 84° N 01:07:15 10° E
STARLINK-1367 2.9 01:01:16 10° W 01:04:26 85° N 01:07:36 10° E
STARLINK-1366 2.9 01:01:38 10° W 01:04:46 84° N 01:07:55 10° E
Cosmos 2360 Rocket 4.4 01:02:08 10° SE 01:05:16 15° E 01:08:24 10° ENE
STARLINK-1352 3.5 01:01:26 10° W 01:05:24 83° N 01:09:23 10° E
STARLINK-1268 3.7 01:04:05 21° SSW 01:05:31 34° SSE 01:08:21 10° E
STARLINK-52 2.8 01:04:17 10° W 01:07:30 68° SSW 01:10:41 10° ESE
STARLINK-58 4.0 01:07:07 20° SSW 01:08:32 28° SSE 01:11:21 10° E
Cosmos 1328 4.2 01:06:19 17° SSW 01:09:09 52° WNW 01:13:04 10° N
STARLINK-1316 3.6 01:07:38 21° SSW 01:09:14 36° SSE 01:12:08 10° E
STARLINK-1368 3.5 01:05:40 10° W 01:09:39 84° N 01:13:37 10° E
Cosmos 2181 Rocket 4.4 01:03:46 10° NNW 01:10:00 53° W 01:15:26 14° SSW
STARLINK-1257 3.6 01:08:29 20° SSW 01:10:07 36° SSE 01:13:03 10° E
STARLINK-1256 3.6 01:09:23 20° SSW 01:11:02 36° SSE 01:13:57 10° E
STARLINK-1213 3.6 01:10:16 20° SSW 01:11:57 37° SSE 01:14:52 10° E
Cosmos 1980 Rocket 2.2 01:07:19 15° SSW 01:12:00 88° WNW 01:17:43 10° NNE
STARLINK-1263 3.5 01:11:07 20° SSW 01:12:51 37° SSE 01:15:46 10° E
STARLINK-1259 3.5 01:12:01 20° SSW 01:13:45 38° SSE 01:16:41 10° E
STARLINK-1369 3.5 01:09:54 10° W 01:13:53 84° N 01:17:52 10° E
STARLINK-1265 3.5 01:12:24 19° SSW 01:14:11 38° SSE 01:17:09 10° E
STARLINK-75 3.3 01:12:03 18° SW 01:14:14 48° SSE 01:17:23 10° E
Cosmos 1455 4.0 01:11:56 10° NW 01:14:35 19° W 01:16:34 13° SW
STARLINK-1285 3.5 01:12:51 19° SSW 01:14:38 38° SSE 01:17:35 10° E
STARLINK-1296 3.5 01:14:36 19° SW 01:16:27 39° SSE 01:19:24 10° E
Meteor 1-11 4.2 01:11:52 15° SSW 01:16:40 85° WNW 01:22:17 10° NNE
STARLINK-1260 3.5 01:15:25 19° SW 01:17:18 40° SSE 01:20:16 10° E
STARLINK-1317 3.9 01:15:01 16° SW 01:17:48 45° SSE 01:21:30 10° E
STARLINK-1307 3.8 01:15:22 17° SW 01:17:51 41° SSE 01:21:20 10° E
STARLINK-1372 3.5 01:14:09 10° W 01:18:08 85° N 01:22:08 10° E
STARLINK-1318 3.4 01:16:19 18° SW 01:18:14 40° SSE 01:21:12 10° E
USA 215 4.3 01:13:42 12° S 01:18:16 24° SW 01:23:22 10° WNW
Cosmos 1703 4.1 01:15:39 15° SW 01:18:31 38° WNW 01:22:14 10° N
STARLINK-1275 3.4 01:17:11 18° SW 01:19:08 41° SSE 01:22:07 10° E
STARLINK-1309 3.4 01:18:04 18° SW 01:20:02 41° SSE 01:23:00 10° E
Cosmos 2369 4.3 01:15:14 11° SW 01:20:32 53° NW 01:26:06 10° NNE
SL-4 R/B 2.6 01:15:56 10° W 01:20:33 45° SSW 01:25:02 10° SE
STARLINK-1282 3.4 01:18:56 18° SW 01:20:56 42° SSE 01:23:54 10° E
STARLINK-1290 3.8 01:18:35 16° SW 01:21:11 43° SSE 01:24:42 10° E
STARLINK-1313 3.3 01:19:53 17° SW 01:22:01 46° SSE 01:25:02 10° E
STARLINK-1378 3.5 01:18:23 10° W 01:22:23 86° N 01:26:22 10° E
STARLINK-1272 3.7 01:19:57 16° SW 01:22:28 44° SSE 01:25:52 10° E
FALCON 9 DEB 3.0 01:19:10 10° W 01:22:37 75° SSW 01:26:04 10° ESE
STARLINK-22 3.3 01:20:24 17° SW 01:22:38 45° SSE 01:25:45 10° E
BREEZE-M DEB (TANK) 3.0 01:22:08 19° S 01:22:51 23° SSE 01:25:07 10° E
STARLINK-1279 3.2 01:20:47 17° SW 01:22:57 46° SSE 01:25:58 10° E
STARLINK-1298 3.3 01:21:31 17° SW 01:23:36 43° SSE 01:26:36 10° E
STARLINK-1293 3.3 01:22:22 17° SW 01:24:30 43° SSE 01:27:30 10° E
STARLINK-1255 3.3 01:24:08 16° SW 01:26:19 44° SSE 01:29:20 10° E
Cosmos 2263 Rocket 2.3 01:20:51 10° NW 01:26:20 57° WSW 01:31:46 10° S
STARLINK-1379 3.5 01:22:41 10° W 01:26:41 87° NNE 01:30:41 10° E
Cosmos 540 Rocket 3.9 01:23:50 13° SW 01:28:21 54° WNW 01:33:25 10° NNE
Cosmos 2154 Rocket 4.3 01:23:06 10° S 01:29:17 68° E 01:35:28 10° NNE
STARLINK-1329 3.5 01:26:01 10° W 01:30:02 88° N 01:34:02 10° E
SL-16 R/B 2.7 01:24:25 10° S 01:30:27 56° WSW 01:36:34 10° NNW
ATLAS CENTAUR R/B 4.3 01:28:48 10° NW 01:31:01 14° N 01:33:11 10° NNE
MOZ.5/SAFIR/RUBIN 5/SL-8 4.4 01:28:03 13° SSW 01:31:47 38° W 01:36:10 10° NNW
H-2A R/B 4.2 01:28:43 10° ESE 01:32:33 29° ENE 01:36:26 10° N
STARLINK-1362 3.5 01:30:21 10° W 01:34:22 89° N 01:38:23 10° E
STARLINK-43 3.3 01:31:37 10° WSW 01:35:18 87° S 01:39:00 10° E
STARLINK-1291 3.6 01:32:10 13° SW 01:35:20 52° SSE 01:38:56 10° E
ADEOS II 3.0 01:30:17 10° NNE 01:35:21 45° E 01:40:22 10° S
STARLINK-60 3.8 01:33:02 10° W 01:35:50 28° SSW 01:38:38 10° SSE
Cosmos 1869 3.2 01:32:06 10° NNW 01:35:59 79° W 01:39:51 10° S
NPP 3.7 01:31:09 10° NNE 01:36:36 88° ESE 01:41:55 10° SSW
STARLINK-1311 2.9 01:34:29 13° SW 01:36:57 55° SSE 01:39:52 10° E
STARLINK-42 2.9 01:34:42 11° WSW 01:37:38 63° SSE 01:40:46 10° E
STARLINK-1029 3.7 01:35:36 15° SSW 01:37:50 35° SSE 01:40:46 10° E
STARLINK-1264 3.5 01:35:13 12° SW 01:38:29 53° SSE 01:42:06 10° E
STARLINK-1373 3.5 01:34:43 10° W 01:38:44 90° SW 01:42:45 10° E
CZ-4B R/B 3.7 01:34:47 10° NNE 01:40:03 81° ESE 01:45:21 10° SSW
Cosmos 1892 3.5 01:37:33 10° S 01:41:12 48° E 01:44:52 10° NNE
STARLINK-1274 3.4 01:38:05 12° SW 01:41:17 54° SSE 01:44:46 10° E
STARLINK-1267 3.5 01:38:17 11° SW 01:41:40 56° SSE 01:45:18 10° E
STARLINK-34 3.3 01:40:11 13° SW 01:42:39 44° SSE 01:45:37 10° E
STARLINK-1390 3.5 01:39:05 10° W 01:43:07 88° S 01:47:08 10° ESE
STARLINK-41 2.8 01:41:03 10° WSW 01:44:05 66° SSE 01:47:10 10° E
ERS-2 3.8 01:41:07 10° SE 01:44:29 35° ENE 01:47:52 10° N
STARLINK-62 3.3 01:42:25 13° SW 01:45:01 46° SSE 01:48:02 10° E
IRS-1D 3.9 01:39:46 10° NNE 01:45:04 65° ESE 01:50:13 10° S
STARLINK-1365 3.5 01:43:07 10° W 01:47:11 86° S 01:51:14 10° ESE
Cosmos 1400 Rocket 4.3 01:44:32 10° NW 01:47:50 23° W 01:50:54 11° SW
STARLINK-1207 3.4 01:44:27 10° WSW 01:48:05 59° SSE 01:51:45 10° ENE
Cosmos 2322 Rocket 2.7 01:44:36 10° S 01:50:03 54° ESE 01:55:32 10° NE
BREEZE-M R/B 2.6 01:46:07 10° W 01:50:28 51° S 01:53:08 10° ESE
Nadezhda 3 Rocket 4.1 01:44:43 10° NNW 01:51:00 70° W 01:57:18 10° S
STARLINK-1266 3.4 01:47:39 10° WSW 01:51:19 61° SSE 01:55:00 10° ENE
In-Cosmos 22 Rocket 4.4 01:46:52 10° S 01:52:26 71° E 01:57:53 10° NNE
STARLINK-64 4.1 01:50:05 12° SW 01:53:07 36° SSE 01:56:27 10° E
ARIANE 5 R/B 3.6 01:48:42 10° NNE 01:53:25 39° E 01:58:05 10° SSE
STARLINK-1284 3.4 01:50:54 10° WSW 01:54:34 64° SSE 01:58:15 10° ENE
STARLINK 1040 2.4 01:52:12 10° W 01:54:46 80° N 01:57:20 10° E
GP-B 4.2 01:50:57 10° NNW 01:54:51 31° WNW 01:58:45 10° SW
STARLINK-1444 3.7 01:53:46 10° WSW 01:55:18 16° SSW 01:56:53 10° SSE
STARLINK-1452 3.7 01:54:24 10° WSW 01:55:55 16° SSW 01:57:29 10° S
STARLINK-1450 3.7 01:55:42 10° WSW 01:57:07 15° SSW 01:58:35 10° S
STARLINK-1436 (VISORSAT) 3.7 01:55:44 10° WSW 01:57:12 16° SSW 01:58:43 10° S
STARLINK-1392 3.7 01:55:49 10° WSW 01:57:14 15° SSW 01:58:43 10° S
STARLINK-1399 3.7 01:55:50 10° WSW 01:57:16 15° SSW 01:58:43 10° S
STARLINK-1415 3.7 01:55:50 10° WSW 01:57:16 15° SSW 01:58:44 10° S
STARLINK-1394 3.7 01:55:51 10° WSW 01:57:16 15° SSW 01:58:43 10° S
STARLINK-1414 3.7 01:55:48 10° WSW 01:57:16 16° SSW 01:58:47 10° S
STARLINK-1398 3.7 01:55:47 10° WSW 01:57:16 16° SSW 01:58:48 10° S
STARLINK-1395 3.7 01:55:51 10° WSW 01:57:16 15° SSW 01:58:44 10° S
STARLINK-1393 3.7 01:55:51 10° WSW 01:57:17 15° SSW 01:58:44 10° S
STARLINK-1416 3.7 01:55:49 10° WSW 01:57:17 16° SSW 01:58:48 10° S
STARLINK-1396 3.7 01:55:52 10° WSW 01:57:17 15° SSW 01:58:45 10° S
STARLINK-1397 3.7 01:55:52 10° WSW 01:57:17 15° SSW 01:58:45 10° S
STARLINK-1401 3.7 01:55:52 10° WSW 01:57:17 15° SSW 01:58:45 10° S
STARLINK-1404 3.7 01:55:53 10° WSW 01:57:18 15° SSW 01:58:46 10° S
STARLINK-1408 3.7 01:55:50 10° WSW 01:57:18 16° SSW 01:58:49 10° S
STARLINK-1453 3.7 01:55:53 10° WSW 01:57:18 15° SSW 01:58:46 10° S
STARLINK-1419 3.7 01:55:51 10° WSW 01:57:19 16° SSW 01:58:50 10° S
STARLINK-1402 3.7 01:55:54 10° WSW 01:57:20 15° SSW 01:58:47 10° S
STARLINK-1417 3.7 01:55:54 10° WSW 01:57:20 15° SSW 01:58:47 10° S
STARLINK-1413 3.7 01:55:55 10° WSW 01:57:21 15° SSW 01:58:48 10° S
STARLINK-1406 3.7 01:55:56 10° WSW 01:57:21 15° SSW 01:58:49 10° S
STARLINK-1420 3.7 01:55:53 10° WSW 01:57:22 16° SSW 01:58:53 10° S
STARLINK-1440 3.7 01:55:57 10° WSW 01:57:23 15° SSW 01:58:50 10° S
STARLINK-1422 3.7 01:55:55 10° WSW 01:57:23 16° SSW 01:58:54 10° S
STARLINK-1460 3.7 01:55:55 10° WSW 01:57:23 16° SSW 01:58:54 10° S
STARLINK-1445 3.7 01:55:58 10° WSW 01:57:23 15° SSW 01:58:51 10° S
STARLINK-1458 3.7 01:55:56 10° WSW 01:57:24 16° SSW 01:58:55 10° S
STARLINK-1443 3.7 01:56:00 10° WSW 01:57:24 15° SSW 01:58:52 10° S
STARLINK-1454 3.7 01:56:00 10° WSW 01:57:24 15° SSW 01:58:52 10° S
STARLINK-1457 3.7 01:56:00 10° WSW 01:57:25 15° SSW 01:58:53 10° S
STARLINK-1456 3.7 01:56:01 10° WSW 01:57:26 15° SSW 01:58:53 10° S
STARLINK-1451 3.7 01:56:01 10° WSW 01:57:26 15° SSW 01:58:53 10° S
STARLINK-1437 3.7 01:55:59 10° WSW 01:57:27 16° SSW 01:58:57 10° S
STARLINK-1442 3.7 01:56:02 10° WSW 01:57:27 15° SSW 01:58:55 10° S
STARLINK-1446 3.7 01:55:59 10° WSW 01:57:28 16° SSW 01:58:59 10° S
STARLINK-1405 3.7 01:56:04 10° WSW 01:57:29 15° SSW 01:58:57 10° S
STARLINK-1421 3.7 01:56:04 10° WSW 01:57:29 15° SSW 01:58:57 10° S
STARLINK-1400 3.7 01:56:05 10° WSW 01:57:30 15° SSW 01:58:58 10° S
STARLINK-1410 3.7 01:56:05 10° WSW 01:57:30 15° SSW 01:58:58 10° S
STARLINK-1423 3.7 01:56:03 10° WSW 01:57:30 16° SSW 01:59:01 10° S
STARLINK-1447 3.7 01:56:02 10° WSW 01:57:31 16° SSW 01:59:02 10° S
STARLINK-1407 3.7 01:56:05 10° WSW 01:57:31 15° SSW 01:58:58 10° S
STARLINK-1455 3.7 01:56:03 10° WSW 01:57:31 16° SSW 01:59:02 10° S
STARLINK-1439 3.7 01:56:06 10° WSW 01:57:31 15° SSW 01:58:59 10° S
STARLINK-1409 3.7 01:56:07 10° WSW 01:57:32 15° SSW 01:58:59 10° S
STARLINK-1441 3.7 01:56:03 10° WSW 01:57:32 16° SSW 01:59:03 10° S
STARLINK-1351 3.7 01:56:08 10° WSW 01:57:32 15° SSW 01:59:00 10° S
STARLINK-1370 3.7 01:56:08 10° WSW 01:57:32 15° SSW 01:59:00 10° S
STARLINK-1418 3.7 01:56:08 10° WSW 01:57:33 15° SSW 01:59:00 10° S
STARLINK-1434 3.7 01:56:08 10° WSW 01:57:33 15° SSW 01:59:00 10° S
STARLINK-1448 3.7 01:56:05 10° WSW 01:57:33 16° SSW 01:59:04 10° S
STARLINK-1449 3.7 01:56:04 10° WSW 01:57:33 16° SSW 01:59:05 10° S
STARLINK-1403 3.7 01:56:09 10° WSW 01:57:34 15° SSW 01:59:01 10° S
STARLINK-1433 3.7 01:56:10 10° WSW 01:57:35 15° SSW 01:59:02 10° S
STARLINK-1411 3.7 01:56:11 10° WSW 01:57:36 15° SSW 01:59:03 10° S
STARLINK-1438 3.7 01:56:12 10° WSW 01:57:36 15° SSW 01:59:04 10° S
STARLINK-1412 3.7 01:56:13 10° WSW 01:57:41 16° SSW 01:59:12 10° S
STARLINK-1258 3.4 01:54:08 10° WSW 01:57:49 65° SSE 02:01:31 10° ENE
Cosmos 1697 Rocket 4.0 01:53:52 10° WSW 01:58:55 32° NW 02:04:00 10° NNE
STARLINK-55 2.9 01:55:46 10° WSW 01:58:58 82° SSE 02:02:11 10° E
Cosmos 2221 3.0 01:55:03 10° NNW 01:59:13 44° W 02:03:22 10° SSW
USA 229 DEB 4.2 01:53:10 10° NW 01:59:57 44° WSW 02:07:02 10° S
USA 229 4.2 01:53:17 10° NW 02:00:04 44° WSW 02:07:09 10° S
NOSS 2-1 (C) 3.3 01:56:56 11° SSW 02:00:10 57° SE 02:03:52 10° NE
STARLINK-1292 3.4 01:57:24 10° WSW 02:01:05 67° SSE 02:04:48 10° ENE
NOSS 3-1 (C) 4.4 01:54:26 10° NW 02:01:23 43° WSW 02:09:16 10° S
Cosmos 1842 Rocket 4.3 01:57:30 10° NNW 02:01:37 36° W 02:05:41 10° SSW
STARLINK-1338 3.4 01:58:56 10° W 02:02:53 79° SSW 02:06:50 10° ESE
Resurs 1-4 Rocket 2.6 01:59:08 10° N 02:04:16 52° WNW 02:09:24 10° SW
STARLINK-1301 3.4 02:00:32 10° WSW 02:04:20 71° SSE 02:08:09 10° ENE
NOSS 2-1 (D) 3.2 02:01:41 10° SSW 02:05:02 64° SE 02:08:47 10° NE
BREEZE-M DEB (TANK) 1.7 02:04:55 10° W 02:07:06 36° S 02:09:47 10° ESE
STARLINK-1289 3.3 02:03:54 10° WSW 02:07:37 71° SSE 02:11:21 10° ENE
STARLINK-29 3.8 02:05:07 10° W 02:07:58 29° SSW 02:10:47 10° SSE
STARLINK-1283 3.6 02:03:55 10° WSW 02:08:00 75° SSE 02:12:05 10° ENE
AQUA 4.1 02:04:07 10° N 02:08:50 60° WNW 02:13:30 10° SSW
NOSS 3-1 (A) 4.2 02:01:57 10° NW 02:09:07 53° SW 02:17:21 10° SSE
STARLINK-28 2.9 02:07:10 10° W 02:10:23 89° SSE 02:13:36 10° E
STARLINK-1303 3.3 02:07:13 10° WSW 02:10:56 73° SSE 02:14:40 10° ENE
STARLINK-1371 3.4 02:07:05 10° WNW 02:11:02 75° SSW 02:14:59 10° ESE
STARLINK-26 3.1 02:08:22 10° WSW 02:11:49 88° S 02:15:17 10° E
STARLINK-1286 4.4 02:09:57 10° SW 02:13:51 39° SSE 02:17:45 10° E
STARLINK-1312 3.3 02:10:32 10° WSW 02:14:15 75° SSE 02:17:59 10° E
STARLINK-1341 3.4 02:11:12 10° WNW 02:15:09 73° SSW 02:19:05 10° ESE
STARLINK-48 3.7 02:13:37 10° SW 02:17:26 57° SSE 02:21:16 10° ENE
STARLINK-1281 4.4 02:14:50 10° SW 02:18:42 39° SSE 02:22:36 10° E
Cosmos 1825 2.9 02:15:05 10° S 02:18:44 52° E 02:22:25 10° NNE
STARLINK-1374 3.4 02:15:18 10° WNW 02:19:15 71° SSW 02:23:10 10° ESE
Cosmos 1408 2.7 02:15:43 10° S 02:19:24 78° E 02:23:05 10° NNE
Cosmos 1844 Rocket 2.7 02:15:46 10° NNW 02:21:25 86° WSW 02:27:00 10° SSE
